Regional Weather Roundup
Issued by NWS Goodland, KS

Home | Current Version | Previous Version | Text Only | Print | Product List | Glossary On
Versions: 1 2 3 4 5 6 7 8 9 10 11 12 13 14 15 16 17 18 19 20 21 22 23 24 25 26 27 28 29 30 31 32 33 34 35 36 37 38 39 40 41 42 43 44 45 46 47 48 49 50
000
ASUS43 KGLD 260708
RWRGLD

GOODLAND FORECAST AREA HOURLY WEATHER ROUNDUP
NATIONAL WEATHER SERVICE GOODLAND KS
1200 AM MST WED NOV 26 2014

...OFFICIAL OBSERVATIONS...

CITY           SKY/WX    TMP DP  RH WIND       PRES   REMARKS
GOODLAND KS    CLOUDY    34  32  92 NW16      30.07R
HILL CITY KS   CLOUDY    46  30  53 NW16G22   30.00R
IMPERIAL NEB   CLOUDY    37  29  72 NW15      30.03R
MCCOOK NEB     CLOUDY    41  30  65 NW20G25   30.01R
AKRON CO       LGT SNOW  31  30  96 NW12      30.08S FOG
BURLINGTON CO  LGT SNOW  33  30  88 N10       30.09R FOG
LIMON CO       LGT SNOW  28  27  96 N12       30.11R FOG     WCI  18
$$

...UNOFFICIAL OBSERVATIONS...

CITY           SKY/WX    TMP DP  RH WIND       PRES   REMARKS
COLBY KS       RAIN      37  37 100 W15G22    30.07R
GOVE KS          N/A     39  32  76 MISG        N/A
NORTON KS      CLOUDY    41  27  56 NW13      29.98R
SHARON SPRINGS   N/A     35  32  90 N16G23      N/A
TRIBUNE KS     CLOUDY    37  36  93 N17G24    30.08R
TRENTON NEB      N/A     37  32  82 NW7         N/A
YUMA CO          N/A     32  29  90 W9          N/A
$$



USA.gov is the U.S. government's official web portal to all federal, state and local government web resources and services.